Time,TemperatureF,DewpointF,PressureIn,WindDirection,WindDirectionDegrees,WindSpeedMPH,WindSpeedGustMPH,Humidity,HourlyPrecipIn,Conditions,Clouds,dailyrainin,SoftwareType,DateUTC
2013-10-21 00:01:00,43.5,38.1,29.96,NNE,22,0.0,0.0,81,0.00,,,0.00,WUHU21623XXSP,2013-10-21 04:01:00,
2013-10-21 00:02:00,43.5,38.1,29.96,NNE,22,0.0,0.0,81,0.00,,,0.00,WUHU21623XXSP,2013-10-21 04:02:00,
2013-10-21 00:07:00,43.5,38.4,29.97,NNE,22,0.0,0.0,82,0.00,,,0.00,WUHU21623XXSP,2013-10-21 04:07:00,
2013-10-21 00:12:00,43.5,38.1,29.97,NNE,22,0.0,0.0,81,0.00,,,0.00,WUHU21623XXSP,2013-10-21 04:12:00,
2013-10-21 00:17:00,43.5,38.1,29.98,NNE,22,0.0,0.0,81,0.00,,,0.00,WUHU21623XXSP,2013-10-21 04:17:00,
2013-10-21 00:22:00,43.5,38.4,29.97,NNE,22,0.0,0.0,82,0.00,,,0.00,WUHU21623XXSP,2013-10-21 04:22:00,
2013-10-21 00:27:00,43.7,38.6,29.98,NNE,22,0.0,0.0,82,0.00,,,0.00,WUHU21623XXSP,2013-10-21 04:27:00,
2013-10-21 00:32:00,44.2,39.4,29.97,NNE,22,1.8,2.5,83,0.00,,,0.00,WUHU21623XXSP,2013-10-21 04:32:00,
2013-10-21 00:37:00,44.4,39.3,29.97,NNE,22,0.0,2.5,82,0.00,,,0.00,WUHU21623XXSP,2013-10-21 04:37:00,
2013-10-21 00:42:00,44.6,39.5,29.97,NNE,22,0.0,0.0,82,0.00,,,0.00,WUHU21623XXSP,2013-10-21 04:42:00,
2013-10-21 00:47:00,44.6,39.5,29.97,NNE,22,0.0,0.0,82,0.00,,,0.00,WUHU21623XXSP,2013-10-21 04:47:00,
2013-10-21 00:52:00,44.6,39.5,29.97,NNE,22,0.0,0.0,82,0.00,,,0.00,WUHU21623XXSP,2013-10-21 04:52:00,
2013-10-21 00:57:00,44.4,39.3,29.97,NNE,22,0.0,0.0,82,0.00,,,0.00,WUHU21623XXSP,2013-10-21 04:57:00,
2013-10-21 01:02:00,44.4,39.3,29.97,NNE,22,0.0,0.0,82,0.00,,,0.00,WUHU21623XXSP,2013-10-21 05:02:00,
2013-10-21 01:07:00,44.6,39.8,29.97,NNE,22,0.0,0.0,83,0.00,,,0.00,WUHU21623XXSP,2013-10-21 05:07:00,
2013-10-21 01:12:00,44.8,39.9,29.98,NNE,22,0.0,0.0,83,0.00,,,0.00,WUHU21623XXSP,2013-10-21 05:12:00,
2013-10-21 01:17:00,44.8,39.6,29.98,NNE,22,0.0,0.0,82,0.00,,,0.00,WUHU21623XXSP,2013-10-21 05:17:00,
2013-10-21 01:22:00,45.0,39.8,29.98,NNE,22,0.0,0.0,82,0.00,,,0.00,WUHU21623XXSP,2013-10-21 05:22:00,
2013-10-21 01:27:00,45.0,39.8,29.98,NNE,22,0.0,0.0,82,0.00,,,0.00,WUHU21623XXSP,2013-10-21 05:27:00,
2013-10-21 01:32:00,45.1,40.3,29.98,NNE,22,0.0,0.0,83,0.00,,,0.00,WUHU21623XXSP,2013-10-21 05:32:00,
2013-10-21 01:37:00,45.1,40.3,29.98,NNE,22,0.0,0.0,83,0.00,,,0.00,WUHU21623XXSP,2013-10-21 05:37:00,
2013-10-21 01:42:00,45.0,39.8,29.98,NNE,22,0.0,0.0,82,0.00,,,0.00,WUHU21623XXSP,2013-10-21 05:42:00,
2013-10-21 01:47:00,45.0,39.8,29.98,NNE,22,0.0,0.0,82,0.00,,,0.00,WUHU21623XXSP,2013-10-21 05:47:00,
2013-10-21 01:52:00,45.0,39.8,29.98,NNE,22,0.0,0.0,82,0.00,,,0.00,WUHU21623XXSP,2013-10-21 05:52:00,
2013-10-21 01:57:00,44.6,39.5,29.98,NNE,22,0.0,0.0,82,0.00,,,0.00,WUHU21623XXSP,2013-10-21 05:57:00,
2013-10-21 02:02:00,44.4,39.3,29.98,NNE,22,0.0,0.0,82,0.00,,,0.00,WUHU21623XXSP,2013-10-21 06:02:00,
2013-10-21 02:07:00,43.5,38.4,29.98,NNE,22,0.0,0.0,82,0.00,,,0.00,WUHU21623XXSP,2013-10-21 06:07:00,
2013-10-21 02:12:00,43.2,38.3,29.98,NNE,22,0.0,0.0,83,0.00,,,0.00,WUHU21623XXSP,2013-10-21 06:12:00,
2013-10-21 02:17:00,42.6,37.8,29.98,NNE,22,0.0,0.0,83,0.00,,,0.00,WUHU21623XXSP,2013-10-21 06:17:00,
2013-10-21 02:22:00,41.9,37.1,29.98,NNE,22,0.0,0.0,83,0.00,,,0.00,WUHU21623XXSP,2013-10-21 06:22:00,
2013-10-21 02:27:00,41.2,36.3,29.99,NNE,22,0.0,0.0,83,0.00,,,0.00,WUHU21623XXSP,2013-10-21 06:27:00,
2013-10-21 02:32:00,40.6,35.8,29.99,NNE,22,0.0,0.0,83,0.00,,,0.00,WUHU21623XXSP,2013-10-21 06:32:00,
2013-10-21 02:37:00,39.9,35.1,29.99,NNE,22,0.0,0.0,83,0.00,,,0.00,WUHU21623XXSP,2013-10-21 06:37:00,
2013-10-21 02:42:00,39.4,34.9,29.99,NNE,22,0.0,0.0,84,0.00,,,0.00,WUHU21623XXSP,2013-10-21 06:42:00,
2013-10-21 02:47:00,39.2,34.8,29.99,NNE,22,0.0,0.0,84,0.00,,,0.00,WUHU21623XXSP,2013-10-21 06:47:00,
2013-10-21 02:52:00,38.8,34.4,29.99,NNE,22,0.0,0.0,84,0.00,,,0.00,WUHU21623XXSP,2013-10-21 06:52:00,
2013-10-21 02:57:00,38.8,34.4,29.99,NNE,22,0.0,0.0,84,0.00,,,0.00,WUHU21623XXSP,2013-10-21 06:57:00,
2013-10-21 03:02:00,39.0,34.9,29.99,NNE,22,0.0,0.0,85,0.00,,,0.00,WUHU21623XXSP,2013-10-21 07:02:00,
2013-10-21 03:07:00,39.4,35.2,29.99,NNE,22,0.0,0.0,85,0.00,,,0.00,WUHU21623XXSP,2013-10-21 07:07:00,
2013-10-21 03:12:00,39.7,35.6,29.99,NNE,22,0.0,0.0,85,0.00,,,0.00,WUHU21623XXSP,2013-10-21 07:12:00,
2013-10-21 03:17:00,40.1,35.9,29.99,NNE,22,0.0,0.0,85,0.00,,,0.00,WUHU21623XXSP,2013-10-21 07:17:00,
2013-10-21 03:22:00,40.6,36.4,29.99,NNE,22,0.0,0.0,85,0.00,,,0.00,WUHU21623XXSP,2013-10-21 07:22:00,
2013-10-21 03:27:00,41.0,36.8,29.98,NNE,22,0.0,0.0,85,0.00,,,0.00,WUHU21623XXSP,2013-10-21 07:27:00,
2013-10-21 03:32:00,41.5,37.3,29.99,NNE,22,0.0,0.0,85,0.00,,,0.00,WUHU21623XXSP,2013-10-21 07:32:00,
2013-10-21 03:37:00,42.1,38.2,29.98,NNE,22,0.0,0.0,86,0.00,,,0.00,WUHU21623XXSP,2013-10-21 07:37:00,
2013-10-21 03:42:00,42.6,38.4,29.98,NNE,22,0.0,0.0,85,0.00,,,0.00,WUHU21623XXSP,2013-10-21 07:42:00,
2013-10-21 03:47:00,43.3,39.1,29.99,NNE,22,0.0,0.0,85,0.00,,,0.00,WUHU21623XXSP,2013-10-21 07:47:00,
2013-10-21 03:52:00,44.4,39.6,29.99,NNE,22,1.1,1.8,83,0.00,,,0.00,WUHU21623XXSP,2013-10-21 07:52:00,
2013-10-21 03:57:00,45.0,39.8,29.99,NNE,22,1.8,1.8,82,0.00,,,0.00,WUHU21623XXSP,2013-10-21 07:57:00,
2013-10-21 04:02:00,45.3,39.6,29.99,NNE,22,0.7,1.8,80,0.00,,,0.00,WUHU21623XXSP,2013-10-21 08:02:00,
2013-10-21 04:07:00,45.7,39.6,29.99,NNE,22,0.9,3.4,79,0.00,,,0.00,WUHU21623XXSP,2013-10-21 08:07:00,
2013-10-21 04:12:00,45.9,39.8,29.99,NNE,22,1.6,3.4,79,0.00,,,0.00,WUHU21623XXSP,2013-10-21 08:12:00,
2013-10-21 04:17:00,46.0,39.6,29.99,NNE,22,1.8,2.7,78,0.00,,,0.00,WUHU21623XXSP,2013-10-21 08:17:00,
2013-10-21 04:22:00,46.2,39.8,29.99,NNE,22,1.8,4.0,78,0.00,,,0.00,WUHU21623XXSP,2013-10-21 08:22:00,
2013-10-21 04:27:00,46.2,39.4,29.99,NNE,22,3.1,4.0,77,0.00,,,0.00,WUHU21623XXSP,2013-10-21 08:27:00,
2013-10-21 04:32:00,46.2,39.4,29.99,NNE,22,3.4,3.4,77,0.00,,,0.00,WUHU21623XXSP,2013-10-21 08:32:00,
2013-10-21 04:37:00,46.6,39.4,29.99,NNE,22,0.0,3.4,76,0.00,,,0.00,WUHU21623XXSP,2013-10-21 08:37:00,
2013-10-21 04:42:00,46.6,39.4,29.99,NNE,22,3.4,3.4,76,0.00,,,0.00,WUHU21623XXSP,2013-10-21 08:42:00,
2013-10-21 04:47:00,46.6,39.1,29.99,NNE,22,0.0,3.4,75,0.00,,,0.00,WUHU21623XXSP,2013-10-21 08:47:00,
2013-10-21 04:52:00,46.6,39.4,30.00,NNE,22,0.0,2.7,76,0.00,,,0.00,WUHU21623XXSP,2013-10-21 08:52:00,
2013-10-21 04:57:00,46.6,39.1,30.00,NNE,22,0.2,1.8,75,0.00,,,0.00,WUHU21623XXSP,2013-10-21 08:57:00,
2013-10-21 05:02:00,46.8,39.3,30.00,NNE,22,0.7,1.1,75,0.00,,,0.00,WUHU21623XXSP,2013-10-21 09:02:00,
2013-10-21 05:07:00,46.8,39.3,29.99,NNE,22,0.0,1.1,75,0.00,,,0.00,WUHU21623XXSP,2013-10-21 09:07:00,
2013-10-21 05:12:00,46.6,38.8,29.99,NNE,22,2.0,2.0,74,0.00,,,0.00,WUHU21623XXSP,2013-10-21 09:12:00,
2013-10-21 05:17:00,46.6,39.1,29.99,NNE,22,1.1,2.0,75,0.00,,,0.00,WUHU21623XXSP,2013-10-21 09:17:00,
2013-10-21 05:22:00,46.6,39.1,29.99,NNE,22,0.9,1.6,75,0.00,,,0.00,WUHU21623XXSP,2013-10-21 09:22:00,
2013-10-21 05:27:00,46.6,39.1,30.00,NNE,22,0.0,0.9,75,0.00,,,0.00,WUHU21623XXSP,2013-10-21 09:27:00,
2013-10-21 05:32:00,46.6,38.8,30.00,NNE,22,0.7,4.0,74,0.00,,,0.00,WUHU21623XXSP,2013-10-21 09:32:00,
2013-10-21 05:37:00,46.6,38.8,29.99,NNE,22,1.8,4.0,74,0.00,,,0.00,WUHU21623XXSP,2013-10-21 09:37:00,
2013-10-21 05:42:00,46.6,38.8,30.00,NNE,22,0.0,3.6,74,0.00,,,0.00,WUHU21623XXSP,2013-10-21 09:42:00,
2013-10-21 05:47:00,46.2,38.4,30.00,NNE,22,4.0,4.0,74,0.00,,,0.00,WUHU21623XXSP,2013-10-21 09:47:00,
2013-10-21 05:52:00,46.0,38.2,30.00,NNE,22,3.1,4.0,74,0.00,,,0.00,WUHU21623XXSP,2013-10-21 09:52:00,
2013-10-21 05:57:00,45.7,38.2,30.00,NNE,22,0.0,3.1,75,0.00,,,0.00,WUHU21623XXSP,2013-10-21 09:57:00,
2013-10-21 06:02:00,45.1,37.7,30.00,NNE,22,2.9,2.9,75,0.00,,,0.00,WUHU21623XXSP,2013-10-21 10:02:00,
2013-10-21 06:07:00,44.6,37.5,30.00,NNE,22,3.4,3.4,76,0.00,,,0.00,WUHU21623XXSP,2013-10-21 10:07:00,
2013-10-21 06:12:00,44.8,37.7,30.00,NNE,22,1.3,3.4,76,0.00,,,0.00,WUHU21623XXSP,2013-10-21 10:12:00,
2013-10-21 06:17:00,44.8,37.7,30.00,NNE,22,0.0,2.5,76,0.00,,,0.00,WUHU21623XXSP,2013-10-21 10:17:00,
2013-10-21 06:22:00,44.6,37.5,30.00,NNE,22,0.0,2.0,76,0.00,,,0.00,WUHU21623XXSP,2013-10-21 10:22:00,
2013-10-21 06:27:00,44.2,37.1,30.00,NNE,22,0.7,1.1,76,0.00,,,0.00,WUHU21623XXSP,2013-10-21 10:27:00,
2013-10-21 06:32:00,43.5,36.8,30.00,NNE,22,2.5,2.5,77,0.00,,,0.00,WUHU21623XXSP,2013-10-21 10:32:00,
2013-10-21 06:37:00,43.3,36.6,30.00,NNE,22,0.0,2.5,77,0.00,,,0.00,WUHU21623XXSP,2013-10-21 10:37:00,
2013-10-21 06:42:00,43.0,36.6,30.01,NNE,22,0.0,0.0,78,0.00,,,0.00,WUHU21623XXSP,2013-10-21 10:42:00,
2013-10-21 06:47:00,42.4,36.0,30.00,NNE,22,0.9,0.9,78,0.00,,,0.00,WUHU21623XXSP,2013-10-21 10:47:00,
2013-10-21 06:52:00,42.3,36.2,30.00,NNE,22,0.0,0.9,79,0.00,,,0.00,WUHU21623XXSP,2013-10-21 10:52:00,
2013-10-21 06:57:00,42.1,36.0,30.00,NNE,22,0.0,0.4,79,0.00,,,0.00,WUHU21623XXSP,2013-10-21 10:57:00,
2013-10-21 07:02:00,42.4,36.3,30.00,NNE,22,1.8,2.0,80,0.00,,,0.00,WUHU21623XXSP,2013-10-21 11:02:00,
2013-10-21 07:07:00,43.2,37.1,30.00,NNE,22,5.1,5.1,79,0.00,,,0.00,WUHU21623XXSP,2013-10-21 11:07:00,
2013-10-21 07:12:00,43.7,37.3,30.00,NNE,22,3.4,5.1,78,0.00,,,0.00,WUHU21623XXSP,2013-10-21 11:12:00,
2013-10-21 07:17:00,44.2,37.8,30.00,NNE,22,2.9,3.4,78,0.00,,,0.00,WUHU21623XXSP,2013-10-21 11:17:00,
2013-10-21 07:22:00,44.8,37.7,30.00,NNE,22,2.0,4.5,76,0.00,,,0.00,WUHU21623XXSP,2013-10-21 11:22:00,
2013-10-21 07:27:00,44.8,37.7,30.00,NNE,22,1.8,4.5,76,0.00,,,0.00,WUHU21623XXSP,2013-10-21 11:27:00,
2013-10-21 07:32:00,45.0,37.8,30.01,NNE,22,2.2,2.5,76,0.00,,,0.00,WUHU21623XXSP,2013-10-21 11:32:00,
2013-10-21 07:37:00,45.0,37.5,30.00,NNE,22,1.6,2.2,75,0.00,,,0.00,WUHU21623XXSP,2013-10-21 11:37:00,
2013-10-21 07:42:00,45.1,37.7,30.00,NNE,22,0.0,1.6,75,0.00,,,0.00,WUHU21623XXSP,2013-10-21 11:42:00,
2013-10-21 07:47:00,44.6,37.1,30.00,NNE,22,0.0,0.0,75,0.00,,,0.00,WUHU21623XXSP,2013-10-21 11:47:00,
2013-10-21 07:52:00,44.4,37.3,30.01,NNE,22,0.0,1.1,76,0.00,,,0.00,WUHU21623XXSP,2013-10-21 11:52:00,
2013-10-21 07:57:00,44.4,37.3,30.01,NNE,22,0.0,1.1,76,0.00,,,0.00,WUHU21623XXSP,2013-10-21 11:57:00,
2013-10-21 08:02:00,44.2,37.5,30.01,NNE,22,0.0,0.0,77,0.00,,,0.00,WUHU21623XXSP,2013-10-21 12:02:00,
2013-10-21 08:07:00,45.0,38.2,30.01,NNE,22,1.8,2.2,77,0.00,,,0.00,WUHU21623XXSP,2013-10-21 12:07:00,
2013-10-21 08:12:00,45.7,38.6,30.01,NNE,22,4.5,4.5,76,0.00,,,0.00,WUHU21623XXSP,2013-10-21 12:12:00,
2013-10-21 08:17:00,47.1,39.2,30.00,NNE,22,1.8,4.5,74,0.00,,,0.00,WUHU21623XXSP,2013-10-21 12:17:00,
2013-10-21 08:22:00,47.8,39.2,30.00,NNE,22,4.9,4.9,72,0.00,,,0.00,WUHU21623XXSP,2013-10-21 12:22:00,
2013-10-21 08:27:00,48.0,39.4,30.01,NNE,22,3.4,4.9,72,0.00,,,0.00,WUHU21623XXSP,2013-10-21 12:27:00,
2013-10-21 08:32:00,48.4,39.0,30.01,NNE,22,4.3,4.3,70,0.00,,,0.00,WUHU21623XXSP,2013-10-21 12:32:00,
2013-10-21 08:37:00,48.6,39.2,30.01,NNE,22,2.2,4.3,70,0.00,,,0.00,WUHU21623XXSP,2013-10-21 12:37:00,
2013-10-21 08:42:00,48.6,39.5,30.01,NNE,22,1.1,2.2,71,0.00,,,0.00,WUHU21623XXSP,2013-10-21 12:42:00,
2013-10-21 08:47:00,48.7,39.4,30.01,NNE,22,3.1,5.1,70,0.00,,,0.00,WUHU21623XXSP,2013-10-21 12:47:00,
2013-10-21 08:52:00,48.7,39.4,30.01,NNE,22,1.1,5.1,70,0.00,,,0.00,WUHU21623XXSP,2013-10-21 12:52:00,
2013-10-21 08:57:00,48.9,39.2,30.01,NNE,22,4.7,7.4,69,0.00,,,0.00,WUHU21623XXSP,2013-10-21 12:57:00,
2013-10-21 09:02:00,49.3,39.5,30.01,NNE,22,1.8,7.4,69,0.00,,,0.00,WUHU21623XXSP,2013-10-21 13:02:00,
2013-10-21 09:07:00,49.5,40.1,30.00,NNE,22,0.0,3.6,70,0.00,,,0.00,WUHU21623XXSP,2013-10-21 13:07:00,
2013-10-21 09:12:00,49.6,39.9,30.01,NNE,22,6.3,6.3,69,0.00,,,0.00,WUHU21623XXSP,2013-10-21 13:12:00,
2013-10-21 09:17:00,49.8,39.7,30.01,NNE,22,2.0,6.3,68,0.00,,,0.00,WUHU21623XXSP,2013-10-21 13:17:00,
2013-10-21 09:22:00,49.8,39.7,30.01,NNE,22,4.7,4.7,68,0.00,,,0.00,WUHU21623XXSP,2013-10-21 13:22:00,
2013-10-21 09:27:00,50.4,39.8,30.00,NNE,22,2.7,4.7,67,0.00,,,0.00,WUHU21623XXSP,2013-10-21 13:27:00,
2013-10-21 09:32:00,51.6,40.2,30.00,NNE,22,2.0,5.4,65,0.00,,,0.00,WUHU21623XXSP,2013-10-21 13:32:00,
2013-10-21 09:37:00,51.6,40.6,30.00,NNE,22,2.0,5.4,66,0.00,,,0.00,WUHU21623XXSP,2013-10-21 13:37:00,
2013-10-21 09:42:00,51.6,40.2,30.00,NNE,22,2.0,4.0,65,0.00,,,0.00,WUHU21623XXSP,2013-10-21 13:42:00,
2013-10-21 09:47:00,52.9,41.0,30.00,NNE,22,2.0,4.5,64,0.00,,,0.00,WUHU21623XXSP,2013-10-21 13:47:00,
2013-10-21 09:52:00,53.1,40.7,29.99,NNE,22,6.3,6.3,63,0.00,,,0.00,WUHU21623XXSP,2013-10-21 13:52:00,
2013-10-21 09:57:00,53.2,40.5,30.00,NNE,22,1.6,7.6,62,0.00,,,0.00,WUHU21623XXSP,2013-10-21 13:57:00,
2013-10-21 10:02:00,54.0,40.4,29.99,NNE,22,10.1,10.1,60,0.00,,,0.00,WUHU21623XXSP,2013-10-21 14:02:00,
2013-10-21 10:07:00,54.5,40.9,29.99,NNE,22,5.6,10.1,60,0.00,,,0.00,WUHU21623XXSP,2013-10-21 14:07:00,
2013-10-21 10:12:00,55.2,40.6,29.99,NNE,22,4.3,5.6,58,0.00,,,0.00,WUHU21623XXSP,2013-10-21 14:12:00,
2013-10-21 10:17:00,55.6,41.9,29.99,NNE,22,1.6,7.6,60,0.00,,,0.00,WUHU21623XXSP,2013-10-21 14:17:00,
2013-10-21 10:22:00,55.9,41.3,29.99,NNE,22,8.1,8.1,58,0.00,,,0.00,WUHU21623XXSP,2013-10-21 14:22:00,
2013-10-21 10:27:00,56.3,41.7,29.99,NNE,22,4.5,8.1,58,0.00,,,0.00,WUHU21623XXSP,2013-10-21 14:27:00,
2013-10-21 10:32:00,57.0,42.4,29.99,NNE,22,2.9,5.8,58,0.00,,,0.00,WUHU21623XXSP,2013-10-21 14:32:00,
2013-10-21 10:37:00,57.4,42.3,29.99,NNE,22,3.4,4.5,57,0.00,,,0.00,WUHU21623XXSP,2013-10-21 14:37:00,
2013-10-21 10:42:00,57.7,43.1,29.99,NNE,22,4.3,4.3,58,0.00,,,0.00,WUHU21623XXSP,2013-10-21 14:42:00,
2013-10-21 10:47:00,58.6,43.4,29.99,NNE,22,5.1,5.1,57,0.00,,,0.00,WUHU21623XXSP,2013-10-21 14:47:00,
2013-10-21 10:52:00,58.6,42.5,29.98,NNE,22,6.3,6.3,55,0.00,,,0.00,WUHU21623XXSP,2013-10-21 14:52:00,
2013-10-21 10:57:00,58.8,41.7,29.98,NNE,22,4.0,7.6,53,0.00,,,0.00,WUHU21623XXSP,2013-10-21 14:57:00,
2013-10-21 11:02:00,58.8,41.7,29.98,NNE,22,6.3,12.8,53,0.00,,,0.00,WUHU21623XXSP,2013-10-21 15:02:00,
2013-10-21 11:07:00,58.3,42.2,29.98,NNE,22,6.9,12.8,55,0.00,,,0.00,WUHU21623XXSP,2013-10-21 15:07:00,
2013-10-21 11:12:00,58.6,42.5,29.98,NNE,22,9.6,9.6,55,0.00,,,0.00,WUHU21623XXSP,2013-10-21 15:12:00,
2013-10-21 11:17:00,58.8,42.2,29.98,NNE,22,5.4,9.6,54,0.00,,,0.00,WUHU21623XXSP,2013-10-21 15:17:00,
2013-10-21 11:22:00,59.4,43.1,29.98,NNE,22,1.8,7.8,55,0.00,,,0.00,WUHU21623XXSP,2013-10-21 15:22:00,
2013-10-21 11:27:00,59.9,43.2,29.98,NNE,22,6.5,6.5,54,0.00,,,0.00,WUHU21623XXSP,2013-10-21 15:27:00,
2013-10-21 11:32:00,60.4,42.2,29.97,NNE,22,2.7,6.5,51,0.00,,,0.00,WUHU21623XXSP,2013-10-21 15:32:00,
2013-10-21 11:37:00,60.4,43.2,29.98,NNE,22,2.9,5.4,53,0.00,,,0.00,WUHU21623XXSP,2013-10-21 15:37:00,
2013-10-21 11:42:00,61.0,42.2,29.97,NNE,22,3.4,3.4,50,0.00,,,0.00,WUHU21623XXSP,2013-10-21 15:42:00,
2013-10-21 11:47:00,61.0,41.7,29.97,NNE,22,14.1,14.1,49,0.00,,,0.00,WUHU21623XXSP,2013-10-21 15:47:00,
2013-10-21 11:52:00,61.5,42.7,29.97,NNE,22,2.0,14.1,50,0.00,,,0.00,WUHU21623XXSP,2013-10-21 15:52:00,
2013-10-21 11:57:00,61.5,41.6,29.97,NNE,22,8.1,15.7,48,0.00,,,0.00,WUHU21623XXSP,2013-10-21 15:57:00,
2013-10-21 12:02:00,62.2,41.6,29.97,NNE,22,10.5,15.7,47,0.00,,,0.00,WUHU21623XXSP,2013-10-21 16:02:00,
2013-10-21 12:07:00,62.8,42.1,29.97,NNE,22,7.4,10.5,47,0.00,,,0.00,WUHU21623XXSP,2013-10-21 16:07:00,
2013-10-21 12:12:00,63.3,43.2,29.97,NNE,22,5.8,8.7,48,0.00,,,0.00,WUHU21623XXSP,2013-10-21 16:12:00,
2013-10-21 12:17:00,63.1,42.5,29.96,NNE,22,3.6,7.2,47,0.00,,,0.00,WUHU21623XXSP,2013-10-21 16:17:00,
2013-10-21 12:22:00,63.1,41.9,29.96,NNE,22,6.5,7.2,46,0.00,,,0.00,WUHU21623XXSP,2013-10-21 16:22:00,
2013-10-21 12:27:00,63.1,42.5,29.96,NNE,22,11.9,11.9,47,0.00,,,0.00,WUHU21623XXSP,2013-10-21 16:27:00,
2013-10-21 12:32:00,63.5,42.8,29.96,NNE,22,0.0,11.9,47,0.00,,,0.00,WUHU21623XXSP,2013-10-21 16:32:00,
2013-10-21 12:38:00,64.0,42.1,29.96,NNE,22,6.9,6.9,45,0.00,,,0.00,WUHU21623XXSP,2013-10-21 16:38:00,
2013-10-21 12:43:00,64.2,42.3,29.96,NNE,22,7.6,7.6,45,0.00,,,0.00,WUHU21623XXSP,2013-10-21 16:43:00,
2013-10-21 12:48:00,64.0,40.4,29.95,NNE,22,6.7,7.8,42,0.00,,,0.00,WUHU21623XXSP,2013-10-21 16:48:00,
2013-10-21 12:53:00,63.3,40.3,29.95,NNE,22,1.8,7.8,43,0.00,,,0.00,WUHU21623XXSP,2013-10-21 16:53:00,
2013-10-21 12:58:00,63.7,41.2,29.95,NNE,22,4.9,6.9,44,0.00,,,0.00,WUHU21623XXSP,2013-10-21 16:58:00,
2013-10-21 13:03:00,63.5,40.5,29.95,North,0,0.0,8.1,43,0.00,,,0.00,WUHU21623XXSP,2013-10-21 17:03:00,
2013-10-21 13:08:00,63.7,40.6,29.95,NNE,22,3.8,8.1,43,0.00,,,0.00,WUHU21623XXSP,2013-10-21 17:08:00,
2013-10-21 13:13:00,64.2,41.1,29.94,NNE,22,0.0,6.7,43,0.00,,,0.00,WUHU21623XXSP,2013-10-21 17:13:00,
2013-10-21 13:18:00,64.0,41.0,29.94,NNE,22,2.5,10.3,43,0.00,,,0.00,WUHU21623XXSP,2013-10-21 17:18:00,
2013-10-21 13:23:00,64.0,41.0,29.94,NNE,22,4.3,10.3,43,0.00,,,0.00,WUHU21623XXSP,2013-10-21 17:23:00,
2013-10-21 13:28:00,64.0,41.0,29.93,NNE,22,6.9,6.9,43,0.00,,,0.00,WUHU21623XXSP,2013-10-21 17:28:00,
2013-10-21 13:33:00,63.7,40.1,29.93,NNE,22,9.8,9.8,42,0.00,,,0.00,WUHU21623XXSP,2013-10-21 17:33:00,
2013-10-21 13:38:00,63.7,41.2,29.93,NNE,22,5.4,9.8,44,0.00,,,0.00,WUHU21623XXSP,2013-10-21 17:38:00,
2013-10-21 13:43:00,63.1,39.6,29.93,NNE,22,11.4,11.4,42,0.00,,,0.00,WUHU21623XXSP,2013-10-21 17:43:00,
2013-10-21 13:48:00,63.0,41.1,29.92,NNE,22,7.8,11.4,45,0.00,,,0.00,WUHU21623XXSP,2013-10-21 17:48:00,
2013-10-21 13:53:00,63.1,40.2,29.92,North,0,8.7,8.7,43,0.00,,,0.00,WUHU21623XXSP,2013-10-21 17:53:00,
2013-10-21 13:58:00,64.0,41.0,29.93,NNE,22,3.6,8.7,43,0.00,,,0.00,WUHU21623XXSP,2013-10-21 17:58:00,
2013-10-21 14:03:00,64.2,41.7,29.92,NNE,22,8.9,8.9,44,0.00,,,0.00,WUHU21623XXSP,2013-10-21 18:03:00,
2013-10-21 14:08:00,64.2,42.3,29.92,NNE,22,6.9,8.9,45,0.00,,,0.00,WUHU21623XXSP,2013-10-21 18:08:00,
2013-10-21 14:13:00,63.7,40.6,29.92,NNE,22,6.0,7.8,43,0.00,,,0.00,WUHU21623XXSP,2013-10-21 18:13:00,
2013-10-21 14:18:00,63.5,40.5,29.91,NNE,22,6.9,7.8,43,0.00,,,0.00,WUHU21623XXSP,2013-10-21 18:18:00,
2013-10-21 14:23:00,63.7,41.2,29.91,NNE,22,6.9,6.9,44,0.00,,,0.00,WUHU21623XXSP,2013-10-21 18:23:00,
2013-10-21 14:28:00,63.7,40.6,29.91,NNE,22,7.6,7.6,43,0.00,,,0.00,WUHU21623XXSP,2013-10-21 18:28:00,
2013-10-21 14:33:00,63.5,39.9,29.91,NNE,22,5.4,8.9,42,0.00,,,0.00,WUHU21623XXSP,2013-10-21 18:33:00,
2013-10-21 14:38:00,63.3,40.9,29.91,NNE,22,3.6,8.9,44,0.00,,,0.00,WUHU21623XXSP,2013-10-21 18:38:00,
2013-10-21 14:43:00,63.7,40.6,29.91,NNE,22,5.4,8.1,43,0.00,,,0.00,WUHU21623XXSP,2013-10-21 18:43:00,
2013-10-21 14:48:00,63.1,40.2,29.91,NNE,22,4.0,8.1,43,0.00,,,0.00,WUHU21623XXSP,2013-10-21 18:48:00,
2013-10-21 14:53:00,62.8,40.4,29.91,NNE,22,1.3,5.1,44,0.00,,,0.00,WUHU21623XXSP,2013-10-21 18:53:00,
2013-10-21 14:58:00,62.8,40.4,29.90,NNE,22,2.0,11.4,44,0.00,,,0.00,WUHU21623XXSP,2013-10-21 18:58:00,
2013-10-21 15:03:00,63.0,40.6,29.90,NNE,22,2.5,11.4,44,0.00,,,0.00,WUHU21623XXSP,2013-10-21 19:03:00,
2013-10-21 15:08:00,63.1,41.3,29.90,NNE,22,4.9,4.9,45,0.00,,,0.00,WUHU21623XXSP,2013-10-21 19:08:00,
2013-10-21 15:13:00,63.7,41.2,29.90,NNE,22,2.0,5.4,44,0.00,,,0.00,WUHU21623XXSP,2013-10-21 19:13:00,
2013-10-21 15:18:00,64.0,41.0,29.90,NNE,22,4.7,5.4,43,0.00,,,0.00,WUHU21623XXSP,2013-10-21 19:18:00,
2013-10-21 15:23:00,63.7,41.2,29.90,NNE,22,4.5,4.9,44,0.00,,,0.00,WUHU21623XXSP,2013-10-21 19:23:00,
2013-10-21 15:28:00,63.3,40.9,29.90,NNE,22,1.1,6.9,44,0.00,,,0.00,WUHU21623XXSP,2013-10-21 19:28:00,
2013-10-21 15:33:00,63.3,39.7,29.90,NNE,22,6.9,6.9,42,0.00,,,0.00,WUHU21623XXSP,2013-10-21 19:33:00,
2013-10-21 15:38:00,63.1,39.6,29.90,NNE,22,7.4,7.4,42,0.00,,,0.00,WUHU21623XXSP,2013-10-21 19:38:00,
2013-10-21 15:43:00,63.0,40.0,29.90,NNE,22,6.3,7.4,43,0.00,,,0.00,WUHU21623XXSP,2013-10-21 19:43:00,
2013-10-21 15:48:00,63.0,40.0,29.90,NNE,22,6.5,6.7,43,0.00,,,0.00,WUHU21623XXSP,2013-10-21 19:48:00,
2013-10-21 15:53:00,62.8,39.3,29.90,NNE,22,6.7,6.7,42,0.00,,,0.00,WUHU21623XXSP,2013-10-21 19:53:00,
2013-10-21 15:58:00,62.8,39.8,29.90,NNE,22,4.0,8.3,43,0.00,,,0.00,WUHU21623XXSP,2013-10-21 19:58:00,
2013-10-21 16:03:00,62.6,39.7,29.90,NNE,22,6.0,8.3,43,0.00,,,0.00,WUHU21623XXSP,2013-10-21 20:03:00,
2013-10-21 16:08:00,62.8,39.8,29.89,NNE,22,7.8,7.8,43,0.00,,,0.00,WUHU21623XXSP,2013-10-21 20:08:00,
2013-10-21 16:13:00,62.4,40.1,29.89,NNE,22,3.8,7.8,44,0.00,,,0.00,WUHU21623XXSP,2013-10-21 20:13:00,
2013-10-21 16:18:00,62.4,39.5,29.89,NNE,22,7.8,7.8,43,0.00,,,0.00,WUHU21623XXSP,2013-10-21 20:18:00,
2013-10-21 16:23:00,62.4,39.5,29.89,NNE,22,2.5,7.8,43,0.00,,,0.00,WUHU21623XXSP,2013-10-21 20:23:00,
2013-10-21 16:28:00,62.4,40.1,29.89,NNE,22,5.4,5.4,44,0.00,,,0.00,WUHU21623XXSP,2013-10-21 20:28:00,
2013-10-21 16:33:00,62.2,39.3,29.89,NNE,22,1.8,5.4,43,0.00,,,0.00,WUHU21623XXSP,2013-10-21 20:33:00,
2013-10-21 16:38:00,62.2,39.9,29.89,NNE,22,1.1,4.7,44,0.00,,,0.00,WUHU21623XXSP,2013-10-21 20:38:00,
2013-10-21 16:43:00,61.9,40.2,29.89,NNE,22,3.6,4.5,45,0.00,,,0.00,WUHU21623XXSP,2013-10-21 20:43:00,
2013-10-21 16:48:00,61.9,40.2,29.89,NNE,22,2.9,6.3,45,0.00,,,0.00,WUHU21623XXSP,2013-10-21 20:48:00,
2013-10-21 16:53:00,61.9,40.2,29.89,NNE,22,2.5,7.6,45,0.00,,,0.00,WUHU21623XXSP,2013-10-21 20:53:00,
2013-10-21 16:58:00,61.7,40.0,29.89,NNE,22,3.8,7.6,45,0.00,,,0.00,WUHU21623XXSP,2013-10-21 20:58:00,
2013-10-21 17:02:00,61.5,40.4,29.89,NNE,22,1.6,6.9,46,0.00,,,0.00,WUHU21623XXSP,2013-10-21 21:02:00,
2013-10-21 17:07:00,61.3,40.3,29.89,NNE,22,2.9,2.9,46,0.00,,,0.00,WUHU21623XXSP,2013-10-21 21:07:00,
2013-10-21 17:12:00,61.2,40.7,29.88,NNE,22,0.0,6.9,47,0.00,,,0.00,WUHU21623XXSP,2013-10-21 21:12:00,
2013-10-21 17:17:00,60.8,40.9,29.88,NNE,22,0.0,6.9,48,0.00,,,0.00,WUHU21623XXSP,2013-10-21 21:17:00,
2013-10-21 17:22:00,60.4,41.2,29.88,NNE,22,0.0,0.2,49,0.00,,,0.00,WUHU21623XXSP,2013-10-21 21:22:00,
2013-10-21 17:27:00,59.9,41.3,29.88,NNE,22,2.0,2.0,50,0.00,,,0.00,WUHU21623XXSP,2013-10-21 21:27:00,
2013-10-21 17:32:00,59.9,40.7,29.88,NNE,22,3.1,3.1,49,0.00,,,0.00,WUHU21623XXSP,2013-10-21 21:32:00,
2013-10-21 17:37:00,60.3,40.4,29.88,NNE,22,3.4,3.4,48,0.00,,,0.00,WUHU21623XXSP,2013-10-21 21:37:00,
2013-10-21 17:42:00,60.1,39.7,29.88,NNE,22,2.2,7.2,47,0.00,,,0.00,WUHU21623XXSP,2013-10-21 21:42:00,
2013-10-21 17:47:00,60.1,39.1,29.88,NNE,22,5.4,7.2,46,0.00,,,0.00,WUHU21623XXSP,2013-10-21 21:47:00,
2013-10-21 17:52:00,60.1,39.7,29.87,NNE,22,3.1,5.4,47,0.00,,,0.00,WUHU21623XXSP,2013-10-21 21:52:00,
2013-10-21 17:57:00,59.7,39.4,29.87,NNE,22,3.1,7.2,47,0.00,,,0.00,WUHU21623XXSP,2013-10-21 21:57:00,
2013-10-21 18:02:00,59.5,39.2,29.88,NNE,22,0.9,7.2,47,0.00,,,0.00,WUHU21623XXSP,2013-10-21 22:02:00,
2013-10-21 18:07:00,59.4,39.6,29.87,NNE,22,3.4,4.0,48,0.00,,,0.00,WUHU21623XXSP,2013-10-21 22:07:00,
2013-10-21 18:12:00,58.8,39.1,29.87,NNE,22,4.3,4.3,48,0.00,,,0.00,WUHU21623XXSP,2013-10-21 22:12:00,
2013-10-21 18:17:00,58.8,39.7,29.86,NNE,22,0.0,4.3,49,0.00,,,0.00,WUHU21623XXSP,2013-10-21 22:17:00,
2013-10-21 18:22:00,58.3,39.8,29.86,NNE,22,0.0,1.1,50,0.00,,,0.00,WUHU21623XXSP,2013-10-21 22:22:00,
2013-10-21 18:27:00,57.7,39.8,29.86,NNE,22,0.0,0.0,51,0.00,,,0.00,WUHU21623XXSP,2013-10-21 22:27:00,
2013-10-21 18:32:00,57.4,39.5,29.86,NNE,22,0.0,0.7,51,0.00,,,0.00,WUHU21623XXSP,2013-10-21 22:32:00,
2013-10-21 18:37:00,57.0,39.1,29.86,NNE,22,2.7,2.7,51,0.00,,,0.00,WUHU21623XXSP,2013-10-21 22:37:00,
2013-10-21 18:42:00,56.8,39.4,29.86,NNE,22,0.0,2.7,52,0.00,,,0.00,WUHU21623XXSP,2013-10-21 22:42:00,
2013-10-21 18:47:00,56.8,39.4,29.86,NNE,22,0.0,0.0,52,0.00,,,0.00,WUHU21623XXSP,2013-10-21 22:47:00,
2013-10-21 18:52:00,57.0,39.6,29.86,NNE,22,0.0,2.0,52,0.00,,,0.00,WUHU21623XXSP,2013-10-21 22:52:00,
2013-10-21 18:57:00,57.0,39.1,29.86,NNE,22,0.0,2.0,51,0.00,,,0.00,WUHU21623XXSP,2013-10-21 22:57:00,
2013-10-21 19:02:00,57.2,39.3,29.86,NNE,22,3.6,3.6,51,0.00,,,0.00,WUHU21623XXSP,2013-10-21 23:02:00,
2013-10-21 19:07:00,57.4,39.5,29.86,NNE,22,4.7,4.7,51,0.00,,,0.00,WUHU21623XXSP,2013-10-21 23:07:00,
2013-10-21 19:12:00,57.7,39.3,29.86,NNE,22,3.6,4.9,50,0.00,,,0.00,WUHU21623XXSP,2013-10-21 23:12:00,
2013-10-21 19:17:00,57.7,39.3,29.86,NNE,22,4.3,4.9,50,0.00,,,0.00,WUHU21623XXSP,2013-10-21 23:17:00,
2013-10-21 19:22:00,57.7,39.3,29.86,NNE,22,0.0,4.3,50,0.00,,,0.00,WUHU21623XXSP,2013-10-21 23:22:00,
2013-10-21 19:27:00,57.9,38.9,29.87,NNE,22,7.8,7.8,49,0.00,,,0.00,WUHU21623XXSP,2013-10-21 23:27:00,
2013-10-21 19:32:00,58.1,39.1,29.86,NNE,22,1.6,7.8,49,0.00,,,0.00,WUHU21623XXSP,2013-10-21 23:32:00,
2013-10-21 19:37:00,58.1,39.1,29.87,NNE,22,0.7,1.8,49,0.00,,,0.00,WUHU21623XXSP,2013-10-21 23:37:00,
2013-10-21 19:42:00,57.9,39.5,29.86,NNE,22,1.1,4.7,50,0.00,,,0.00,WUHU21623XXSP,2013-10-21 23:42:00,
2013-10-21 19:47:00,58.3,39.2,29.86,NNE,22,4.5,4.7,49,0.00,,,0.00,WUHU21623XXSP,2013-10-21 23:47:00,
2013-10-21 19:52:00,58.3,39.2,29.86,NNE,22,4.5,4.5,49,0.00,,,0.00,WUHU21623XXSP,2013-10-21 23:52:00,
2013-10-21 19:57:00,58.3,38.7,29.86,NNE,22,4.9,4.9,48,0.00,,,0.00,WUHU21623XXSP,2013-10-21 23:57:00,
2013-10-21 20:02:00,58.5,39.4,29.86,NNE,22,4.5,4.9,49,0.00,,,0.00,WUHU21623XXSP,2013-10-22 00:02:00,
2013-10-21 20:07:00,58.5,38.8,29.86,NNE,22,5.6,5.6,48,0.00,,,0.00,WUHU21623XXSP,2013-10-22 00:07:00,
2013-10-21 20:12:00,58.3,39.2,29.86,NNE,22,3.1,5.6,49,0.00,,,0.00,WUHU21623XXSP,2013-10-22 00:12:00,
2013-10-21 20:17:00,58.6,38.4,29.85,NNE,22,6.0,6.0,47,0.00,,,0.00,WUHU21623XXSP,2013-10-22 00:17:00,
2013-10-21 20:22:00,58.6,39.0,29.85,NNE,22,4.5,6.0,48,0.00,,,0.00,WUHU21623XXSP,2013-10-22 00:22:00,
2013-10-21 20:27:00,58.1,38.5,29.85,NNE,22,5.8,5.8,48,0.00,,,0.00,WUHU21623XXSP,2013-10-22 00:27:00,
2013-10-21 20:32:00,58.3,38.7,29.85,NNE,22,4.9,5.8,48,0.00,,,0.00,WUHU21623XXSP,2013-10-22 00:32:00,
2013-10-21 20:37:00,58.1,39.1,29.85,NNE,22,1.8,4.9,49,0.00,,,0.00,WUHU21623XXSP,2013-10-22 00:37:00,
2013-10-21 20:42:00,58.1,39.1,29.85,NNE,22,0.0,2.9,49,0.00,,,0.00,WUHU21623XXSP,2013-10-22 00:42:00,
2013-10-21 20:47:00,57.9,38.9,29.85,NNE,22,2.9,7.6,49,0.00,,,0.00,WUHU21623XXSP,2013-10-22 00:47:00,
2013-10-21 20:52:00,57.9,38.9,29.85,NNE,22,5.4,7.6,49,0.00,,,0.00,WUHU21623XXSP,2013-10-22 00:52:00,
2013-10-21 20:57:00,57.9,38.3,29.85,NNE,22,2.2,7.4,48,0.00,,,0.00,WUHU21623XXSP,2013-10-22 00:57:00,
2013-10-21 21:02:00,58.1,39.1,29.85,NNE,22,6.5,6.5,49,0.00,,,0.00,WUHU21623XXSP,2013-10-22 01:02:00,
2013-10-21 21:07:00,57.9,38.9,29.84,NNE,22,6.3,6.5,49,0.00,,,0.00,WUHU21623XXSP,2013-10-22 01:07:00,
2013-10-21 21:12:00,57.7,38.8,29.84,NNE,22,5.8,7.6,49,0.00,,,0.00,WUHU21623XXSP,2013-10-22 01:12:00,
2013-10-21 21:17:00,57.7,39.3,29.84,NNE,22,2.0,7.6,50,0.00,,,0.00,WUHU21623XXSP,2013-10-22 01:17:00,
2013-10-21 21:22:00,57.6,39.2,29.84,NNE,22,6.5,6.5,50,0.00,,,0.00,WUHU21623XXSP,2013-10-22 01:22:00,
2013-10-21 21:27:00,57.6,39.2,29.85,NNE,22,5.4,7.4,50,0.00,,,0.00,WUHU21623XXSP,2013-10-22 01:27:00,
2013-10-21 21:32:00,57.6,39.2,29.84,NNE,22,4.9,8.1,50,0.00,,,0.00,WUHU21623XXSP,2013-10-22 01:32:00,
2013-10-21 21:37:00,57.7,39.3,29.85,NNE,22,4.3,8.1,50,0.00,,,0.00,WUHU21623XXSP,2013-10-22 01:37:00,
2013-10-21 21:42:00,57.7,39.3,29.84,NNE,22,4.3,9.8,50,0.00,,,0.00,WUHU21623XXSP,2013-10-22 01:42:00,
2013-10-21 21:47:00,57.7,39.3,29.84,NNE,22,6.5,9.8,50,0.00,,,0.00,WUHU21623XXSP,2013-10-22 01:47:00,
2013-10-21 21:52:00,57.7,39.3,29.84,NNE,22,5.8,7.6,50,0.00,,,0.00,WUHU21623XXSP,2013-10-22 01:52:00,
2013-10-21 21:54:00,57.6,39.2,29.84,NNE,22,2.0,7.6,50,0.00,,,0.00,WUHU21623XXSP,2013-10-22 01:54:00,
2013-10-21 21:59:00,57.4,39.5,29.84,NNE,22,6.5,6.5,51,0.00,,,0.00,WUHU21623XXSP,2013-10-22 01:59:00,
2013-10-21 22:04:00,57.0,39.1,29.84,NNE,22,9.6,9.6,51,0.00,,,0.00,WUHU21623XXSP,2013-10-22 02:04:00,
2013-10-21 22:09:00,57.4,39.0,29.84,NNE,22,7.4,9.6,50,0.00,,,0.00,WUHU21623XXSP,2013-10-22 02:09:00,
2013-10-21 22:14:00,57.4,39.5,29.84,NNE,22,6.0,7.4,51,0.00,,,0.00,WUHU21623XXSP,2013-10-22 02:14:00,
2013-10-21 22:19:00,57.0,39.1,29.84,NNE,22,6.7,6.7,51,0.00,,,0.00,WUHU21623XXSP,2013-10-22 02:19:00,
2013-10-21 22:24:00,57.0,39.1,29.84,NNE,22,5.1,6.7,51,0.00,,,0.00,WUHU21623XXSP,2013-10-22 02:24:00,
2013-10-21 22:29:00,57.0,39.1,29.84,NNE,22,6.0,7.6,51,0.00,,,0.00,WUHU21623XXSP,2013-10-22 02:29:00,
2013-10-21 22:34:00,57.0,39.1,29.83,NNE,22,8.5,8.5,51,0.00,,,0.00,WUHU21623XXSP,2013-10-22 02:34:00,
2013-10-21 22:39:00,57.0,39.6,29.83,NNE,22,5.8,8.5,52,0.00,,,0.00,WUHU21623XXSP,2013-10-22 02:39:00,
2013-10-21 22:44:00,56.8,39.9,29.83,NNE,22,7.8,7.8,53,0.00,,,0.00,WUHU21623XXSP,2013-10-22 02:44:00,
2013-10-21 22:49:00,56.8,39.4,29.83,NNE,22,8.9,8.9,52,0.00,,,0.00,WUHU21623XXSP,2013-10-22 02:49:00,
2013-10-21 22:54:00,56.7,39.2,29.83,NNE,22,7.4,8.9,52,0.00,,,0.00,WUHU21623XXSP,2013-10-22 02:54:00,
2013-10-21 22:59:00,56.5,39.5,29.82,NNE,22,1.8,7.4,53,0.00,,,0.00,WUHU21623XXSP,2013-10-22 02:59:00,
2013-10-21 23:04:00,56.3,39.3,29.82,NNE,22,8.1,8.7,53,0.00,,,0.00,WUHU21623XXSP,2013-10-22 03:04:00,
2013-10-21 23:09:00,56.5,39.1,29.82,NNE,22,8.3,8.7,52,0.00,,,0.00,WUHU21623XXSP,2013-10-22 03:09:00,
2013-10-21 23:14:00,56.5,39.5,29.81,NNE,22,8.1,8.3,53,0.00,,,0.00,WUHU21623XXSP,2013-10-22 03:14:00,
2013-10-21 23:19:00,56.1,39.6,29.81,NNE,22,4.9,8.7,54,0.00,,,0.00,WUHU21623XXSP,2013-10-22 03:19:00,
2013-10-21 23:24:00,56.1,39.6,29.81,NNE,22,2.5,8.7,54,0.00,,,0.00,WUHU21623XXSP,2013-10-22 03:24:00,
2013-10-21 23:29:00,56.1,39.2,29.80,NNE,22,6.0,7.6,53,0.00,,,0.00,WUHU21623XXSP,2013-10-22 03:29:00,
2013-10-21 23:34:00,55.9,39.5,29.80,NNE,22,5.4,6.0,54,0.00,,,0.00,WUHU21623XXSP,2013-10-22 03:34:00,
2013-10-21 23:39:00,55.8,39.3,29.80,NNE,22,4.0,8.1,54,0.00,,,0.00,WUHU21623XXSP,2013-10-22 03:39:00,
2013-10-21 23:44:00,55.8,39.3,29.80,NNE,22,5.1,8.1,54,0.00,,,0.00,WUHU21623XXSP,2013-10-22 03:44:00,
2013-10-21 23:49:00,55.8,39.3,29.80,NNE,22,5.8,8.3,54,0.00,,,0.00,WUHU21623XXSP,2013-10-22 03:49:00,
2013-10-21 23:54:00,55.9,39.5,29.80,NNE,22,5.4,8.3,54,0.00,,,0.00,WUHU21623XXSP,2013-10-22 03:54:00,
2013-10-21 23:59:00,55.9,39.5,29.80,NNE,22,6.3,6.3,54,0.00,,,0.00,WUHU21623XXSP,2013-10-22 03:59:00,